GW5534 Weather Reports


Display with metric or nautical units.
time (UTC)temp
F
wind
direction
speed
MPH
gust
MPH
rain 1hr
in
rain 24hr
in
rain mn
in
humidity
%
barometer
mb
20260504221504 74 346 11.0 21.0 0.00 0.00 0.00 25 1003.6
20260504220502 76 348 9.0 24.0 0.00 0.00 0.00 25 1003.4
20260504215503 76 336 12.0 18.0 0.00 0.00 0.00 24 1003.3
20260504214618 76 335 10.0 23.0 0.00 0.00 0.00 24 1003.2
20260504213503 76 335 10.0 22.0 0.00 0.00 0.00 25 1003.2
20260504212503 77 346 8.0 15.0 0.00 0.00 0.00 25 1003.1
20260504211506 78 332 8.0 17.0 0.00 0.00 0.00 25 1003.0
20260504210503 78 329 6.0 15.0 0.00 0.00 0.00 26 1002.9
20260504205503 78 343 8.0 16.0 0.00 0.00 0.00 27 1002.9
20260504204504 78 343 8.0 17.0 0.00 0.00 0.00 28 1002.9
20260504203503 78 335 8.0 16.0 0.00 0.00 0.00 27 1002.8
20260504202503 78 330 8.0 17.0 0.00 0.00 0.00 28 1002.8
20260504201503 78 320 6.0 15.0 0.00 0.00 0.00 29 1002.7
20260504200506 78 326 8.0 16.0 0.00 0.00 0.00 28 1002.7
20260504195503 79 327 8.0 19.0 0.00 0.00 0.00 28 1002.7
20260504194503 79 330 8.0 16.0 0.00 0.00 0.00 29 1002.5
20260504193503 79 330 9.0 19.0 0.00 0.00 0.00 28 1002.5
20260504192503 80 324 7.0 19.0 0.00 0.00 0.00 28 1002.5
20260504191503 80 328 8.0 21.0 0.00 0.00 0.00 27 1002.4
20260504190503 80 331 9.0 17.0 0.00 0.00 0.00 27 1002.3
20260504185503 80 335 8.0 17.0 0.00 0.00 0.00 27 1002.2
20260504184618 80 321 9.0 18.0 0.00 0.00 0.00 25 1002.1
20260504183618 81 323 7.0 15.0 0.00 0.00 0.00 26 1002.1
20260504182503 81 320 6.0 16.0 0.00 0.00 0.00 25 1002.0
20260504181503 81 323 7.0 16.0 0.00 0.00 0.00 25 1001.9
20260504180503 81 308 6.0 14.0 0.00 0.00 0.00 26 1002.0
20260504175503 80 289 5.0 17.0 0.00 0.00 0.00 25 1002.0
20260504174503 80 279 5.0 15.0 0.00 0.00 0.00 26 1002.2
20260504173503 80 313 6.0 14.0 0.00 0.00 0.00 27 1002.3
20260504172503 79 284 6.0 16.0 0.00 0.00 0.00 26 1002.3
20260504171618 79 300 6.0 14.0 0.00 0.00 0.00 25 1002.4
20260504170503 79 286 4.0 13.0 0.00 0.00 0.00 29 1002.4
20260504150618 69 255 2.0 7.0 0.00 0.00 0.00 39 1002.3
20260504140504 63 317 3.0 7.0 0.00 0.00 0.00 45 1002.7
20260504130503 56 340 1.0 4.0 0.00 0.00 0.00 62 1002.7
20260504110618 48 147 0.0 0.0 0.00 0.00 0.00 77 1002.6
20260504081618 49 154 0.0 0.0 0.00 0.00 0.00 71 1004.0
20260504080503 49 163 0.0 0.0 0.00 0.00 0.00 73 1004.1
20260504050503 53 163 0.0 0.0 0.00 0.00 0.00 66 1006.6
20260504045503 53 163 0.0 0.0 0.00 0.00 0.00 67 1006.7
20260504044504 54 163 0.0 0.0 0.00 0.00 0.00 64 1006.8
20260504043617 54 163 0.0 0.0 0.00 0.00 0.00 63 1006.8
20260504042503 55 163 0.0 0.0 0.00 0.00 0.00 62 1006.9
20260504041503 56 163 0.0 0.0 0.00 0.00 0.00 60 1007.1
20260504040503 56 163 0.0 0.0 0.00 0.00 0.00 59 1007.1
20260504035503 57 163 0.0 0.0 0.00 0.00 0.00 58 1007.3
20260504034503 57 163 0.0 0.0 0.00 0.00 0.00 60 1007.4
20260504033503 57 163 0.0 0.0 0.00 0.00 0.00 58 1007.5
20260504032504 58 163 0.0 0.0 0.00 0.00 0.00 58 1007.6
20260504031618 58 163 0.0 0.0 0.00 0.00 0.00 57 1007.5
20260504030503 59 163 0.0 0.0 0.00 0.00 0.00 55 1007.8
20260504025503 59 163 0.0 0.0 0.00 0.00 0.00 54 1007.8
20260504024503 60 163 0.0 0.0 0.00 0.00 0.00 49 1007.8
20260504023503 61 163 0.0 0.0 0.00 0.00 0.00 48 1007.8
20260504022618 61 163 0.0 0.0 0.00 0.00 0.00 45 1008.0
20260504021503 62 163 0.0 0.0 0.00 0.00 0.00 43 1008.0
20260504020504 63 163 0.0 0.0 0.00 0.00 0.00 41 1008.0
20260504015503 65 163 0.0 0.0 0.00 0.00 0.00 39 1008.0
20260504014503 66 163 0.0 0.0 0.00 0.00 0.00 35 1008.1
20260504013503 67 163 0.0 1.0 0.00 0.00 0.00 34 1008.1
20260504012506 69 164 0.0 1.0 0.00 0.00 0.00 32 1008.1
20260504011618 70 172 1.0 4.0 0.00 0.00 0.00 31 1008.0
20260504010504 70 173 2.0 5.0 0.00 0.00 0.00 30 1008.2
20260504005503 71 177 1.0 4.0 0.00 0.00 0.00 28 1008.3
20260504004503 71 185 2.0 5.0 0.00 0.00 0.00 28 1008.4
20260504003503 72 248 1.0 4.0 0.00 0.00 0.00 26 1008.4
20260504002503 72 280 2.0 5.0 0.00 0.00 0.00 25 1008.4
20260504001503 73 270 2.0 6.0 0.00 0.00 0.00 25 1008.6
20260504000618 73 269 1.0 3.0 0.00 0.00 0.00 25 1008.6
20260503235503 74 269 2.0 6.0 0.00 0.00 0.00 26 1008.7
20260503234618 74 252 2.0 5.0 0.00 0.00 0.00 25 1008.6
20260503233503 74 193 1.0 6.0 0.00 0.00 0.00 26 1008.7
20260503232503 74 159 1.0 4.0 0.00 0.00 0.00 27 1008.9
20260503231502 74 175 3.0 8.0 0.00 0.00 0.00 26 1008.9
20260503230503 75 220 3.0 7.0 0.00 0.00 0.00 25 1008.9
20260503225618 74 253 2.0 7.0 0.00 0.00 0.00 25 1008.9
20260503224503 75 243 3.0 8.0 0.00 0.00 0.00 25 1008.9
20260503223503 75 239 2.0 8.0 0.00 0.00 0.00 26 1009.0
20260503222503 75 268 3.0 8.0 0.00 0.00 0.00 25 1009.0